FW5697 Weather Reports


Display with metric or nautical units.
time (UTC)temp
F
wind
direction
speed
MPH
gust
MPH
rain 1hr
in
rain 24hr
in
rain mn
in
humidity
%
barometer
mb
20260502213030 70 360 2.0 9.0 0.00 0.16 0.16 35 1011.2
20260502211540 70 0 3.0 10.0 0.00 0.16 0.16 38 1011.1
20260502210034 71 176 2.0 12.0 0.00 0.16 0.16 41 1011.0
20260502204527 71 121 2.0 12.0 0.00 0.16 0.16 40 1011.0
20260502203029 70 161 2.0 9.0 0.00 0.16 0.16 46 1010.7
20260502201528 71 153 2.0 10.0 0.00 0.16 0.16 46 1010.8
20260502200028 70 170 2.0 10.0 0.00 0.16 0.16 48 1011.0
20260502194526 69 214 1.0 8.0 0.00 0.16 0.16 50 1011.1
20260502193030 70 221 2.0 8.0 0.00 0.16 0.16 50 1011.0
20260502191527 69 0 1.0 4.0 0.00 0.16 0.16 52 1011.0
20260502190034 69 40 1.0 6.0 0.00 0.16 0.16 51 1011.1
20260502184545 69 42 1.0 4.0 0.00 0.16 0.16 53 1011.3
20260502183047 69 28 3.0 8.0 0.00 0.16 0.16 53 1011.3
20260502181538 69 207 3.0 12.0 0.00 0.16 0.16 54 1011.5
20260502163039 63 344 0.0 5.0 0.00 0.16 0.16 75 1012.4
20260502161528 62 212 1.0 5.0 0.00 0.16 0.16 78 1012.5
20260502151534 58 229 1.0 4.0 0.00 0.16 0.16 88 1012.2
20260502123028 56 0 0.0 1.0 0.01 0.14 0.14 96 1011.8
20260502121528 56 0 0.0 2.0 0.01 0.14 0.14 96 1011.3
20260502114527 56 202 0.0 3.0 0.02 0.14 0.14 97 1011.5
20260502113029 56 0 0.0 1.0 0.01 0.13 0.13 97 1010.6
20260502111528 56 0 0.0 2.0 0.01 0.13 0.13 97 1011.5
20260502110036 56 159 0.0 3.0 0.00 0.12 0.12 96 1012.1
20260502104527 56 187 1.0 4.0 0.00 0.12 0.12 97 1012.3
20260502103033 56 173 1.0 2.0 0.00 0.12 0.12 97 1011.7
20260502101544 56 173 0.0 1.0 0.01 0.12 0.12 96 1011.1
20260502091532 56 0 0.0 0.0 0.03 0.11 0.11 96 1011.0
20260502071529 57 0 0.0 0.0 0.04 0.06 0.06 95 1011.4
20260502070050 57 0 0.0 0.0 0.04 0.05 0.05 95 1012.0
20260502064529 57 0 0.0 2.0 0.03 0.04 0.04 95 1012.2
20260502063036 57 0 0.0 0.0 0.03 0.03 0.03 95 1012.5
20260502061527 57 0 0.0 0.0 0.02 0.02 0.02 95 1012.4
20260502060030 57 0 0.0 0.0 0.01 0.01 0.01 94 1012.4
20260502054530 57 0 0.0 0.0 0.01 0.01 0.01 94 1012.1
20260502053027 57 0 0.0 0.0 0.00 0.00 0.00 94 1012.5
20260502051528 57 0 0.0 0.0 0.00 0.00 0.00 94 1012.2
20260502050028 57 0 0.0 0.0 0.00 0.00 0.00 93 1012.4
20260502044528 57 0 0.0 0.0 0.00 0.00 0.00 93 1012.4
20260502043031 57 0 0.0 0.0 0.00 0.00 0.00 93 1012.5
20260502041528 57 0 0.0 0.0 0.00 0.00 0.00 93 1013.0
20260502040029 58 0 0.0 0.0 0.00 0.00 0.00 92 1013.2
20260502034530 58 0 0.0 0.0 0.00 0.00 0.00 92 1013.1
20260502033029 58 0 0.0 0.0 0.00 0.00 0.00 91 1013.1
20260502031528 58 0 0.0 0.0 0.00 0.00 0.00 90 1013.2
20260502030028 58 0 0.0 0.0 0.00 0.00 0.00 89 1013.0
20260502024535 58 0 0.0 0.0 0.00 0.00 0.00 89 1012.7
20260502023028 58 0 0.0 0.0 0.00 0.00 0.00 89 1013.1
20260502021530 59 0 0.0 0.0 0.00 0.00 0.00 89 1013.3
20260502020031 59 0 0.0 0.0 0.00 0.00 0.00 89 1013.3
20260502014530 59 0 0.0 0.0 0.00 0.00 0.00 88 1012.7
20260502013040 59 0 0.0 0.0 0.00 0.00 0.00 87 1012.4
20260502011526 59 0 0.0 0.0 0.00 0.00 0.00 86 1012.3
20260502010027 59 0 0.0 0.0 0.00 0.00 0.00 86 1012.2
20260502004529 59 0 0.0 0.0 0.00 0.00 0.00 85 1012.2
20260502003028 60 0 0.0 0.0 0.00 0.00 0.00 83 1012.1
20260502001527 60 0 0.0 0.0 0.00 0.00 0.00 82 1012.1
20260502000031 61 0 0.0 0.0 0.00 0.00 0.00 81 1012.0
20260501234530 61 0 0.0 0.0 0.00 0.00 0.00 81 1012.0
20260501233030 62 0 0.0 0.0 0.00 0.00 0.00 79 1012.0
20260501231527 62 0 0.0 0.0 0.00 0.00 0.00 75 1012.1
20260501230034 63 0 0.0 0.0 0.00 0.00 0.00 74 1012.1
20260501224527 63 0 0.0 0.0 0.00 0.00 0.00 74 1012.2
20260501223030 63 0 0.0 0.0 0.00 0.00 0.00 69 1011.9
20260501221530 63 0 0.0 0.0 0.00 0.00 0.00 71 1011.7
20260501220056 63 0 0.0 1.0 0.00 0.00 0.00 70 1011.8
20260501214533 63 0 0.0 2.0 0.00 0.00 0.00 69 1012.2